Miscellaneous Local Product
Issued by NWS North Platte, NE

Home | Current Version | Previous Version | Graphics & Text | Print | Product List | Glossary On
Versions: 1 2 3 4 5 6 7 8 9 10 11 12 13 14 15 16 17 18 19 20 21 22 23 24 25 26 27 28 29 30 31 32 33 34 35 36 37 38 39 40 41 42 43 44 45 46 47 48 49 50
000
AXUS43 KLBF 250410
MISLBF


WESTERN AND NORTH CENTRAL NEBRASKA HOURLY WEATHER ROUNDUP
NATIONAL WEATHER SERVICE NORTH PLATTE NE
1100 PM CDT SUN MAY 24 2015

***STATIONS NOT REPORTING VARIABLES SUCH AS SKY/WEATHER OR
PRESSURE ARE PROVIDED BY THE NEBRASKA DEPARTMENT OF
ROADS...RAWS...AND APRS NETWORKS...AND ARE NOT UNDER
NATIONAL WEATHER SERVICE QUALITY CONTROL***

...OBSERVATIONS IN AND NEAR THE EASTERN PANHANDLE OF NEBRASKA...

CITY           SKY/WX    TMP DP  RH WIND       PRES   REMARKS
PINE RIDGE     CLOUDY    56  53  90 E8        29.84R
CHADRON        LGT RAIN  57  55  93 NE10      29.84R
ALLIANCE       CLOUDY    52  49  89 E9        29.83R
SIDNEY         CLOUDY    52  48  86 NE7       29.85R
WHITECLAY        N/A     56  52  86 E7          N/A
BIG SPRINGS      N/A     54  52  93 E8          N/A
$$

...OBSERVATIONS IN NORTH CENTRAL NEBRASKA...

CITY           SKY/WX    TMP DP  RH WIND       PRES   REMARKS
VALENTINE      CLOUDY    58  56  93 E8        29.82R
THEDFORD       CLOUDY    60  58  91 E5        29.81S
AINSWORTH      MOCLDY    58  58  99 E6        29.82S
O`NEILL        CLOUDY    60  60  99 CALM      29.81S FOG
ORD            MOCLDY    61  58  90 SE3       29.79R
BROKEN BOW     MOCLDY    58  56  93 SE3       29.80S
VALENTINE NWR    N/A     57  57  99 E9          N/A
SPRINGVIEW       N/A     58  56  94 E6          N/A
HALSEY           N/A     60  57  91 SE5         N/A
ROSE             N/A     60  60  99 CALM        N/A
NEWPORT          N/A     59  59  99 CALM        N/A
SARGENT          N/A     60  58  94 CALM        N/A
COMSTOCK         N/A     62  62  99 S3          N/A
EWING            N/A     59  58  96 CALM        N/A
$$

...OBSERVATIONS IN SOUTHWEST NEBRASKA AND FAR NORTHEAST COLORADO...

CITY           SKY/WX    TMP DP  RH WIND       PRES   REMARKS
WRAY           MOCLDY    52  52 100 CALM      29.82S
IMPERIAL       RAIN      52  49  89 NE7       29.82F
OGALLALA       RAIN      52  51  97 CALM      29.83R
NORTH PLATTE   RAIN      54  51  90 W10       29.84R
MCCOOK         CLOUDY    54  52  93 NW7       29.84R
LEXINGTON      CLOUDY    61  59  93 SE3       29.82R
PAXTON           N/A     54  52  92 S7          N/A
GOTHENBURG       N/A     55  50  83 W6          N/A
CALLAWAY         N/A     58  57  96 S8          N/A
$$

...NORTH PLATTE AREA...

CITY           SKY/WX    TMP DP  RH WIND       PRES   REMARKS
AIRPORT        RAIN      54  51  90 W10       29.84R
DOWNTOWN         N/A     54  51  89 W3          N/A
$$

...SOME WEATHER OBSERVATIONS FROM AROUND THE REGION...

CITY           SKY/WX    TMP DP  RH WIND       PRES   REMARKS
DENVER         MOCLDY    51  42  71 NW13      29.88R
LARAMIE        MOCLDY    39  36  89 W6        29.93R WCI  35
CHEYENNE       CLOUDY    45  39  79 NW5       29.89R
SCOTTSBLUFF    LGT RAIN  53  50  89 NE8       29.84R
RAPID CITY     CLOUDY    54  53  97 N7        29.88R
PIERRE         CLOUDY    58  57  97 NE6       29.82R FOG
WINNER         FOG       60  58  92 NE3       29.82R VSB 1/2
SIOUX FALLS    CLOUDY    59  58  96 NE8       29.77S
OMAHA          CLOUDY    67  61  81 SW6       29.78R
GRAND ISLAND   MOCLDY    61  58  90 S6        29.80F
KANSAS CITY    CLOUDY    63  62  97 SW7       29.84R
WICHITA        CLOUDY    60  58  92 S6        29.86R
HAYS           CLOUDY    61  54  77 S12       29.84R
LIBERAL        CLOUDY    64  57  77 SE20      29.74F
GOODLAND       LGT RAIN  52  50  93 NE7       29.82S
$$



USA.gov is the U.S. government's official web portal to all federal, state and local government web resources and services.